This demonstration page uses our WeatherBlox Daily Observations layout. Learn more.

Left ArrowRight Arrow

39.95238, -75.16362

Hourly Observations for May 23, 2018

Temp ( °F °C ) Dew Point ( °F °C ) Humidity (%) Winds ( mph kmh ) Pressure ( in mb ) Visibility ( mi km ) Precip ( " mm )
12:27 am 00:27 Cloudy 62 16.7 60 15.6 93 93 SE 5 7 29.94 1014 10 16 0.00 0.00
12:54 am 00:54 Cloudy 62 16.7 61 16.1 96 96 Calm 29.95 1014 10 16 0.00 0.00
1:04 am 01:04 Cloudy 62 16.7 61 16.1 96 96 Calm 29.94 1014 8 13 0.00 0.00
1:50 am 01:50 Cloudy with Mist and Fog 63 17 61 16 94 94 Calm 29.94 1014 6 10 0.00 0.00
1:54 am 01:54 Cloudy with Mist and Fog 63 17.2 61 16.1 93 93 Calm 29.93 1014 6 10 0.00 0.00
2:47 am 02:47 Cloudy with Mist and Fog 62 16.7 61 16.1 96 96 ENE 3 6 29.94 1014 4 6 0.00 0.00
2:54 am 02:54 Cloudy with Mist and Fog 62 16.7 61 16.1 96 96 E 5 7 29.92 1013 4 6 0.00 0.00
3:31 am 03:31 Cloudy with Mist and Fog 63 17.2 62 16.7 97 97 NNE 5 7 29.91 1013 2 3 0.00 0.00
3:54 am 03:54 Cloudy with Mist and Fog 63 17.2 62 16.7 97 97 E 6 9 29.91 1013 2 3 0.00 0.00
4:26 am 04:26 Cloudy with Mist and Fog 62 16.7 61 16.1 96 96 ENE 5 7 29.91 1013 3 5 0.00 0.00
4:54 am 04:54 Cloudy with Mist and Fog 62 16.7 61 16.1 96 96 NE 6 9 29.92 1013 3 5 0.00 0.00
5:00 am 05:00 Cloudy with Mist and Fog 62 16.7 61 16.1 96 96 NE 3 6 29.91 1013 2 3 0.00 0.00
5:28 am 05:28 Cloudy with Mist and Fog 61 16.1 60 15.6 97 97 NE 6 9 29.94 1014 1 1 0.00 0.00
5:39 am 05:39 Cloudy with Mist and Fog 61 16.1 60 15.6 97 97 ENE 6 9 29.94 1014 2 2 0.00 0.00
5:54 am 05:54 Cloudy with Mist and Fog 61 16.1 61 16.1 100 100 E 6 9 29.93 1013 1 2 0.00 0.00
6:19 am 06:19 Cloudy with Mist and Fog 61 16.1 61 16.1 100 100 E 3 6 29.94 1014 1 1 0.00 0.00
6:36 am 06:36 Cloudy with Mist and Fog 62 16.7 61 16.1 96 96 Calm 29.94 1014 1 2 0.00 0.00
6:54 am 06:54 Cloudy with Mist and Fog 62 16.7 61 16.1 96 96 S 3 6 29.93 1014 1 1 0.00 0.00
7:09 am 07:09 Cloudy with Mist and Fog 62 16.7 62 16.7 100 100 S 5 7 29.94 1014 1 2 0.00 0.00
7:49 am 07:49 Cloudy with Mist and Fog 63 17 63 17 100 100 SW 3 6 29.94 1014 2 3 0.00 0.00
7:54 am 07:54 Cloudy with Mist and Fog 63 17.2 62 16.7 97 97 S 3 6 29.95 1014 2 3 0.00 0.00
8:22 am 08:22 Cloudy with Mist and Fog 64 17.8 63 17.2 96 96 Calm 29.94 1014 3 5 0.00 0.00
8:50 am 08:50 Cloudy with Mist and Fog 66 19 63 17 88 88 NW 5 7 29.94 1014 4 6 0.00 0.00
8:54 am 08:54 Cloudy with Mist and Fog 66 18.9 63 17.2 90 90 NNW 6 9 29.95 1014 4 6 0.00 0.00
9:16 am 09:16 Mostly Cloudy with Mist and Fog 68 20 64 17.8 87 87 W 7 11 29.97 1015 5 8 0.00 0.00
9:43 am 09:43 Mostly Cloudy 70 21.1 64 17.8 82 82 WNW 7 11 29.94 1014 10 16 0.00 0.00
9:54 am 09:54 Mostly Cloudy 73 22.8 64 17.8 74 74 WNW 16 26 29.95 1014 10 16 0.00 0.00
10:30 am 10:30 Partly Cloudy 74 23.3 62 16.7 67 67 WNW 15 24 29.97 1015 10 16 0.00 0.00
10:54 am 10:54 Partly Cloudy 74 23.3 61 16.1 64 64 NNW 16 26 29.96 1015 10 16 0.00 0.00
11:54 am 11:54 Partly Cloudy 77 25 63 17.2 62 62 N 15 24 29.96 1015 10 16 0.00 0.00
12:54 pm 12:54 Mostly Cloudy 77 25 61 16.1 58 58 NNW 14 22 29.96 1015 10 16 0.00 0.00
1:54 pm 13:54 Mostly Cloudy 78 25.6 60 15.6 54 54 NW 14 22 29.97 1015 10 16 0.00 0.00
2:54 pm 14:54 Partly Cloudy 79 26.1 59 15 50 50 NNW 16 26 29.97 1015 10 16 0.00 0.00
3:54 pm 15:54 Partly Cloudy 78 25.6 58 14.4 50 50 NW 15 24 29.96 1015 10 16 0.00 0.00
4:54 pm 16:54 Partly Cloudy 79 26.1 53 11.7 41 41 NNW 15 24 29.97 1015 10 16 0.00 0.00
5:54 pm 17:54 Partly Cloudy 79 26.1 54 12.2 42 42 NW 14 22 29.98 1015 10 16 0.00 0.00
6:54 pm 18:54 Mostly Sunny 78 25.6 53 11.7 42 42 NNW 12 19 29.98 1015 10 16 0.00 0.00
7:54 pm 19:54 Mostly Sunny 77 25 52 11.1 42 42 NW 9 15 30.00 1016 10 16 0.00 0.00
8:54 pm 20:54 Clear 76 24.4 52 11.1 43 43 WNW 7 11 30.02 1017 10 16 0.00 0.00
9:54 pm 21:54 Clear 73 22.8 53 11.7 50 50 W 7 11 30.04 1017 10 16 0.00 0.00
10:54 pm 22:54 Clear 69 20.6 55 12.8 61 61 W 6 9 30.04 1017 10 16 0.00 0.00
11:54 pm 23:54 Clear 66 18.9 55 12.8 68 68 SW 5 7 30.05 1018 10 16 0.00 0.00

Powered by AerisWeather